{"data":{"norad_id":49435,"epoch":"2026-05-24T22:42:16.595424Z","epoch_age_seconds":86526,"freshness":"FRESH","line1":"1 49435U 21104AD  26144.94602541  .00016422  00000+0  10490-2 0  9991","line2":"2 49435  53.2152 226.7952 0001466  87.5150 272.6009 15.08787740250427","mean_motion":15.0878774,"eccentricity":0.0001466,"inclination_deg":53.2152,"raan_deg":226.7952,"arg_perigee_deg":87.515,"mean_anomaly_deg":272.6009,"bstar":0.001049,"rev_number":25042,"period_min":95.440860355877,"perigee_km":538.88894680459,"apogee_km":540.91731617114,"semimajor_km":6918.0401314879,"source":"CELESTRAK","updated_at":"2026-05-25T13:38:16.800390Z"}}